Flag for U.S.A. Weather past 2 weeks in Odessa, Texas, U.S.A.

Now
93 °F

Sunny.


Feels Like: 90 °F
Forecast: 70 / 93 °F
Wind: 14 mph from Southeast

Location: Odessa-Schlemeyer Field

Current Time: Aug 31, 2015 at 7:06:20 PM

Latest Report: Aug 31, 2015 at 5:53 PM


Visibility: 10 mi

Pressure: 29.83 "Hg (27.04 "Hg at 882m altitude)

Humidity: 23%

Dew point: 50 °F

Location of OdessaLocation

Historic Weather in Odessa — Graph

°F

Odessa temperature yesterday

Maximum temperature yesterday: 91 °F (at 5:53 PM)
Minimum temperature yesterday: 64 °F (at 6:53 AM)
Average temperature yesterday: 78 °F

Past Weeks' High & Low Weather Summary

 TemperatureHumidityPressure
High100 °F (Aug 22, 5:53 PM)84% (Aug 25, 4:53 AM)30.24 "Hg (Aug 25, 4:53 AM)
Low63 °F (Aug 20, 2:53 AM)17% (Aug 27, 4:53 PM)29.58 "Hg (Aug 18, 7:53 PM)
Average82 °F46%29.90 "Hg
* Reported Aug 16 5:53 PM — Aug 31 5:53 PM, Odessa, Weather by CustomWeather, © 2015

Note: Actual official high and low records may vary slightly from our data, if they occured in-between our weather recording intervals... More about our weather records

Advertising

Odessa weather history for previous 24 hours

 ConditionsComfort  
Time TempWeatherWind HumidityBarometerVisibility
5:53 PM
Mon, Aug 31
93 °FSunny.14 mph23%29.83 "Hg10 mi
4:53 PM93 °FSunny.13 mph22%29.84 "Hg10 mi
3:53 PM92 °FSunny.9 mph24%29.86 "Hg10 mi
2:53 PM92 °FSunny.14 mph25%29.89 "Hg10 mi
1:53 PM90 °FSunny.12 mph28%29.91 "Hg10 mi
12:53 PM88 °FSunny.15 mph30%29.93 "Hg10 mi
11:53 AM84 °FSunny.9 mph36%29.95 "Hg10 mi
10:53 AM82 °FSunny.10 mph43%29.95 "Hg10 mi
9:53 AM77 °FSunny.10 mph52%29.95 "Hg10 mi
8:53 AM72 °FSunny.7 mph61%29.95 "Hg10 mi
7:53 AM68 °FClear.6 mph68%29.93 "Hg10 mi
6:53 AM67 °FClear.6 mph71%29.92 "Hg10 mi
5:53 AM66 °FClear.5 mph70%29.91 "Hg10 mi
4:53 AM67 °FClear.5 mph68%29.90 "Hg10 mi
3:53 AM69 °FClear.6 mph63%29.90 "Hg10 mi
2:53 AM71 °FClear.6 mph57%29.90 "Hg10 mi
1:53 AM73 °FClear.7 mph53%29.91 "Hg10 mi
12:53 AM74 °FClear.12 mph53%29.91 "Hg10 mi
11:53 PM
Sun, Aug 30
76 °FClear.13 mph52%29.91 "Hg10 mi
10:53 PM78 °FClear.12 mph43%29.91 "Hg10 mi
9:53 PM79 °FClear.13 mph45%29.90 "Hg10 mi
8:53 PM82 °FSunny.13 mph40%29.89 "Hg10 mi
7:53 PM87 °FPassing clouds.10 mph27%29.87 "Hg10 mi
Weather by CustomWeather, © 2015

See weather overviewHow to use our weather pages